Location: Asheville, NC
(35.6000°N, 82.5500°W)
Time: 12:20:23
(UTC-04:00)

Vanguard 2 Rocket - Pass Details

Date: 12 December 2017
Orbit: 553 x 3328 km, 32.9° (Epoch: 23 June)

Event Time Altitude Azimuth Distance (km) Brightness Sun altitude
Rises 20:41:52 0° 250° (WSW) 5,240 11.6 -40.6°
Reaches altitude 10° 20:44:45 10° 249° (WSW) 4,546 11.0 -41.2°
Maximum altitude 20:58:43 76° 166° (SSE) 2,945 9.1 -44.1°
Enters shadow 20:59:28 76° 147° (SSE) 2,986 9.1 -44.2°
Drops below altitude 10° 21:19:04 10° 86° (E) 6,285 - -48.2°
Sets 21:23:54 0° 85° (E) 7,251 - -49.2°
